DW4885 Weather Reports


Display with metric or nautical units.
time (UTC)temp
F
wind
direction
speed
MPH
gust
MPH
rain 1hr
in
rain 24hr
in
rain mn
in
humidity
%
barometer
mb
20220625174009 82 324 0.0 2.0 0.00 0.00 0.00 56 1016.4
20220625172509 83 296 2.0 3.0 0.00 0.00 0.00 52 1016.5
20220625172009 84 297 1.0 6.0 0.00 0.00 0.00 54 1016.4
20220625171509 84 313 0.0 2.0 0.00 0.00 0.00 50 1016.5
20220625165510 82 34 1.0 5.0 0.00 0.00 0.00 53 1016.8
20220625163509 81 235 2.0 8.0 0.00 0.00 0.00 55 1016.9
20220625163009 81 12 1.0 5.0 0.00 0.00 0.00 55 1017.0
20220625162509 81 287 2.0 5.0 0.00 0.00 0.00 65 1017.1
20220625162009 81 295 2.0 6.0 0.00 0.00 0.00 58 1017.2
20220625161509 81 172 1.0 6.0 0.00 0.00 0.00 61 1017.1
20220625161010 80 249 1.0 10.0 0.00 0.00 0.00 59 1017.1
20220625160509 81 208 3.0 7.0 0.00 0.00 0.00 58 1017.0
20220625154013 81 341 0.0 3.0 0.00 0.00 0.00 56 1017.1
20220625153509 80 317 0.0 3.0 0.00 0.00 0.00 59 1017.1
20220625153010 80 298 1.0 3.0 0.00 0.00 0.00 60 1017.1
20220625152509 80 126 1.0 3.0 0.00 0.00 0.00 59 1017.2
20220625152009 80 296 0.0 3.0 0.00 0.00 0.00 64 1017.3
20220625151510 79 239 0.0 3.0 0.00 0.00 0.00 61 1017.3
20220625151009 80 306 0.0 1.0 0.00 0.00 0.00 60 1017.3
20220625150009 79 257 0.0 1.0 0.00 0.00 0.00 63 1017.3
20220625145510 78 189 0.0 5.0 0.00 0.00 0.00 63 1017.3
20220625145009 78 278 1.0 3.0 0.00 0.00 0.00 67 1017.3
20220625143009 78 84 0.0 1.0 0.00 0.00 0.00 64 1017.3
20220625142509 78 292 0.0 1.0 0.00 0.00 0.00 63 1017.3
20220625141510 77 275 0.0 1.0 0.00 0.00 0.00 66 1017.5
20220625141009 76 277 0.0 3.0 0.00 0.00 0.00 65 1017.6
20220625140010 76 296 1.0 3.0 0.00 0.00 0.00 65 1017.6
20220625134009 77 313 0.0 1.0 0.00 0.00 0.00 68 1017.5
20220625132509 73 258 0.0 2.0 0.00 0.00 0.00 66 1017.5
20220625132009 74 235 1.0 5.0 0.00 0.00 0.00 67 1017.4
20220625131510 74 228 2.0 5.0 0.00 0.00 0.00 67 1017.3
20220625130010 73 238 0.0 1.0 0.00 0.00 0.00 69 1017.6
20220625125509 72 227 0.0 3.0 0.00 0.00 0.00 72 1017.5
20220625124510 72 264 1.0 3.0 0.00 0.00 0.00 70 1017.3
20220625123510 71 206 0.0 2.0 0.00 0.00 0.00 70 1017.3
20220625122010 69 294 0.0 1.0 0.00 0.00 0.00 77 1017.3
20220625121510 68 223 0.0 3.0 0.00 0.00 0.00 77 1017.2
20220625121009 68 233 0.0 2.0 0.00 0.00 0.00 76 1017.1
20220625120510 67 235 0.0 0.0 0.00 0.00 0.00 78 1017.1
20220625120009 67 236 0.0 2.0 0.00 0.00 0.00 77 1017.1
20220625114510 65 116 0.0 0.0 0.00 0.00 0.00 83 1017.1
20220625112510 60 116 0.0 0.0 0.00 0.00 0.00 92 1017.0
20220625112010 59 116 0.0 0.0 0.00 0.00 0.00 92 1017.0
20220625111010 58 116 0.0 0.0 0.00 0.00 0.00 93 1016.8
20220625110510 58 116 0.0 0.0 0.00 0.00 0.00 93 1016.8
20220625105509 58 116 0.0 0.0 0.00 0.00 0.00 94 1016.8
20220625105010 58 116 0.0 0.0 0.00 0.00 0.00 94 1016.8
20220625102510 57 116 0.0 0.0 0.00 0.00 0.00 93 1016.7
20220625100010 57 116 0.0 0.0 0.00 0.00 0.00 94 1016.5
20220625095010 56 116 0.0 1.0 0.00 0.00 0.00 94 1016.4
20220625094510 56 116 0.0 0.0 0.00 0.00 0.00 94 1016.4
20220625094010 56 116 0.0 0.0 0.00 0.00 0.00 94 1016.3
20220625092010 57 116 0.0 0.0 0.00 0.00 0.00 92 1016.2
20220625085010 56 116 0.0 1.0 0.00 0.00 0.00 93 1015.9
20220625084510 56 116 1.0 1.0 0.00 0.00 0.00 94 1016.0
20220625084010 56 110 0.0 0.0 0.00 0.00 0.00 93 1016.0
20220625083510 56 110 0.0 0.0 0.00 0.00 0.00 92 1015.9
20220625083010 57 110 0.0 0.0 0.00 0.00 0.00 91 1015.9
20220625082010 57 110 0.0 0.0 0.00 0.00 0.00 93 1015.8
20220625080510 57 110 0.0 0.0 0.00 0.00 0.00 93 1015.7
20220625080010 57 110 0.0 0.0 0.00 0.00 0.00 94 1015.8
20220625075510 56 110 0.0 0.0 0.00 0.00 0.00 94 1015.7
20220625074510 56 110 0.0 0.0 0.00 0.00 0.00 93 1015.7
20220625074010 56 110 0.0 0.0 0.00 0.00 0.00 93 1015.7
20220625072510 56 110 0.0 0.0 0.00 0.00 0.00 93 1015.7
20220625071511 56 110 0.0 0.0 0.00 0.00 0.00 93 1015.7
20220625071010 56 110 0.0 0.0 0.00 0.00 0.00 92 1015.7
20220625070010 57 110 0.0 0.0 0.00 0.00 0.00 90 1015.6
20220625065510 57 110 0.0 0.0 0.00 0.00 0.00 90 1015.6
20220625064511 58 110 0.0 0.0 0.00 0.00 0.00 89 1015.5
20220625064010 58 110 0.0 0.0 0.00 0.00 0.00 89 1015.5
20220625062010 59 110 0.0 0.0 0.00 0.00 0.00 89 1015.5
20220625061510 58 110 0.0 0.0 0.00 0.00 0.00 89 1015.5
20220625060010 58 110 0.0 0.0 0.00 0.00 0.00 89 1015.5
20220625054010 58 110 0.0 0.0 0.00 0.00 0.00 90 1015.5
20220625053011 58 65 0.0 0.0 0.00 0.00 0.00 90 1015.4
20220625052510 58 65 0.0 0.0 0.00 0.00 0.00 89 1015.5
20220625050511 60 65 0.0 0.0 0.00 0.00 0.00 87 1015.3
20220625050011 60 65 0.0 0.0 0.00 0.00 0.00 86 1015.3
20220625045510 60 65 0.0 0.0 0.00 0.00 0.00 85 1015.2
20220625045010 60 65 0.0 0.0 0.00 0.00 0.00 84 1015.2
20220625043011 59 65 0.0 0.0 0.00 0.00 0.00 88 1015.2
20220625042008 60 65 0.0 0.0 0.00 0.00 0.00 86 1015.2
20220625041507 60 65 0.0 0.0 0.00 0.00 0.00 86 1015.2
20220625041008 60 65 0.0 0.0 0.00 0.00 0.00 86 1015.2
20220625035507 61 65 0.0 0.0 0.00 0.00 0.00 83 1015.2
20220625034507 61 65 0.0 0.0 0.00 0.00 0.00 82 1015.2
20220625032508 61 65 0.0 0.0 0.00 0.00 0.00 84 1015.1
20220625032008 62 65 0.0 0.0 0.00 0.00 0.00 82 1015.1
20220625031508 62 65 0.0 0.0 0.00 0.00 0.00 82 1015.0
20220625024507 62 65 0.0 1.0 0.00 0.00 0.00 80 1015.2
20220625024008 62 65 0.0 0.0 0.00 0.00 0.00 81 1015.2
20220625022010 65 65 0.0 1.0 0.00 0.01 0.00 73 1015.0
20220625021507 65 65 0.0 0.0 0.00 0.01 0.00 74 1015.0
20220625021007 65 65 0.0 0.0 0.00 0.01 0.00 74 1015.0
20220625020007 65 65 0.0 0.0 0.00 0.01 0.00 73 1015.1
20220625015508 65 65 0.0 0.0 0.00 0.01 0.00 73 1015.0
20220625014508 65 75 0.0 0.0 0.00 0.01 0.00 73 1015.0
20220625014008 65 75 0.0 0.0 0.00 0.01 0.00 72 1015.0
20220625013508 66 75 0.0 0.0 0.00 0.01 0.00 72 1014.9
20220625012508 66 75 0.0 0.0 0.00 0.01 0.00 72 1014.9
20220625012008 65 75 0.0 0.0 0.00 0.01 0.00 72 1014.8
20220625011010 66 75 0.0 1.0 0.00 0.01 0.00 72 1014.7
20220625010008 66 75 0.0 0.0 0.00 0.01 0.00 71 1014.6
20220625005008 66 46 0.0 1.0 0.00 0.01 0.00 71 1014.4
20220625004508 66 46 0.0 0.0 0.00 0.01 0.00 71 1014.4
20220625003508 67 46 0.0 0.0 0.00 0.01 0.00 70 1014.4
20220625003008 67 46 0.0 0.0 0.00 0.01 0.00 69 1014.3
20220625002508 67 46 0.0 0.0 0.00 0.01 0.00 69 1014.2
20220625001512 68 46 0.0 0.0 0.00 0.01 0.00 67 1014.2
20220625001008 69 46 0.0 0.0 0.00 0.01 0.00 66 1014.3
20220625000508 69 46 0.0 0.0 0.00 0.01 0.00 66 1014.2
20220624235508 71 46 0.0 0.0 0.00 0.01 0.00 65 1014.1
20220624234508 72 46 0.0 0.0 0.00 0.01 0.00 62 1013.9
20220624233508 74 46 0.0 0.0 0.00 0.01 0.00 60 1013.9
20220624232508 76 19 0.0 1.0 0.00 0.01 0.00 57 1013.8
20220624232008 76 356 0.0 2.0 0.00 0.02 0.00 54 1013.7
20220624231008 77 11 0.0 1.0 0.00 0.02 0.00 53 1013.8
20220624230508 77 358 0.0 0.0 0.00 0.02 0.00 54 1013.8
20220624225508 77 357 0.0 2.0 0.00 0.02 0.00 54 1013.9
20220624224508 78 297 0.0 2.0 0.00 0.02 0.00 56 1013.7
20220624222508 78 14 0.0 2.0 0.00 0.02 0.00 55 1013.8
20220624221008 78 284 0.0 3.0 0.00 0.02 0.00 54 1013.8
20220624220008 78 329 0.0 3.0 0.00 0.02 0.00 56 1013.8
20220624215013 77 59 0.0 6.0 0.00 0.04 0.00 53 1013.7
20220624214508 78 338 0.0 3.0 0.00 0.04 0.00 54 1013.6
20220624214009 79 16 0.0 2.0 0.00 0.05 0.00 52 1013.6
20220624213008 77 266 0.0 6.0 0.00 0.06 0.00 56 1013.6
20220624212508 78 290 0.0 3.0 0.00 0.06 0.00 55 1013.6
20220624211508 79 89 0.0 2.0 0.00 0.08 0.00 51 1013.8
20220624211008 78 284 0.0 2.0 0.00 0.08 0.00 52 1013.8
20220624205508 79 328 0.0 1.0 0.00 0.11 0.00 53 1013.7
20220624202508 76 324 0.0 3.0 0.00 0.11 0.00 60 1013.7
20220624202008 76 340 0.0 2.0 0.00 0.11 0.00 56 1013.7
20220624201508 78 291 2.0 3.0 0.00 0.11 0.00 51 1013.6
20220624201009 78 9 1.0 7.0 0.00 0.11 0.00 54 1013.6
20220624195009 77 354 1.0 2.0 0.00 0.11 0.00 61 1013.4
20220624194508 76 131 1.0 3.0 0.00 0.11 0.00 56 1013.4
20220624193008 77 274 1.0 5.0 0.00 0.11 0.00 58 1013.3
20220624191509 76 50 1.0 3.0 0.00 0.11 0.00 63 1013.5
20220624191011 75 114 0.0 1.0 0.00 0.11 0.00 63 1013.6
20220624190508 75 309 0.0 3.0 0.00 0.11 0.00 63 1013.7
20220624185508 75 302 0.0 2.0 0.00 0.11 0.00 60 1013.7
20220624185008 75 278 1.0 3.0 0.00 0.11 0.00 65 1013.8
20220624184508 74 302 0.0 2.0 0.00 0.11 0.00 67 1013.8
20220624182509 74 34 0.0 3.0 0.00 0.11 0.00 66 1013.7
20220624182009 75 127 0.0 1.0 0.00 0.11 0.00 63 1013.7